Location: Bednik
(45.3500°N, 16.3833°E)
Time: 16:19:27
(UTC+00:00)

CZ-2D R/B - Pass Details

Date: 08 August 2020
Orbit: 792 x 845 km, 98.7° (Epoch: 18 September)

Event Time Altitude Azimuth Distance (km) Brightness Sun altitude
Rises 23:46:47 0° 22° (NNE) 3,412 6.6 -28.0°
Reaches altitude 10° 23:49:24 10° 32° (NNE) 2,474 5.5 -27.9°
Maximum altitude 23:54:20 33° 96° (E) 1,380 3.3 -27.6°
Enters shadow 23:54:55 33° 108° (ESE) 1,400 3.2 -27.6°
